Zurück zum Katalog

DELTA 1 DEB

AktivSSO
NORAD 21467·DEBRIS·🇺🇸 United States

Gestartet Jun 12, 1975 von Vandenberg Space Force Base

Loading…

Nächste Überflüge (nächste 24 Stunden)

TLE

AktuellSource: Space-Track

Epoche: Sep 14, 2026, 10:06 UTC

1 21467U 75052FB  26257.42137656  .00000076  00000-0  18722-3 0  9991
2 21467  99.7464  55.6976 0026371  22.5527   3.8781 13.50278138740142

Verfolge DELTA 1 DEB in Echtzeit mit AllMySat

Download on the App Store